SPACEMOBILE-SSR01 DEB, 62369

Orbit data source: Space-Track

SPACEMOBILE-SSR01 DEB, 62369 is space debris in LEO originally from a launch on Thu, 12 Sep 2024 UTC launched from the Air Force Eastern Test Range (AFETR). Debris objects in space refer to the collection of defunct objects orbiting the Earth. Examples of debris include non-operational satellites, rocket bodies, and fragments generated from explosions, collisions, or faulty payload assembly.

Loading next visibility...
Identifier
62369, 2024-163F
Orbit
LEO
Country
Flag of USUS
Related business
Manufacturer
AST & Science
Mission
Spacecraft
Bus & Motor
BW3 LVA, Unknown motor
Mass
150 kg wet, 150 kg dry
Launch date (UTC)
2024-09-12 (1 year ago)
Launch vehicle
Unknown
Launch site
Air Force Eastern Test Range (AFETR)
Object type
Payload
Rocket body
Debris
Shape & HBR
Cyl, 3.8 m
Radar Cross Section
1.963 m², Large (>1 m²)

Expand to show TLE details & history
Last TLE update: 15 hours ago

TLE from 15 hours ago
0 SPACEMOBILE-SSR01 DEB
1 62369U 24163F   25340.45031752  .00017319  00000-0  59142-3 0  9998
2 62369  52.9954 101.4259 0007430 279.3719  80.6440 15.30402239 56941
Epoch: 2025-12-06T10:48Z
TLE epoch observation values (Epoch: 2025-12-06T10:48:27.433Z)
Latitude
0.00001°
Longitude
-136.16628°
Altitude
474.669 km
Speed
7.63 km/s
True Right ascension
06h 45m 42s
True Declination
0° 00' 00"
Sunlit
Object was in full shadow at epoch
Visualization orbit readout
Latitude
Unknown
Longitude
Unknown
Altitude
Unknown
Speed
Unknown
Apparent Right ascension
Unknown
Apparent Declination
Unknown
Sunlit
N/A
Visualization observer readout
Local Sidereal Time
23:28:34
Azimuth
Unknown
Elevation
Unknown
Doppler factor
Unknown
Orbital elements
Apogee altitude
479.986 km
Perigee altitude
469.803 km
Semi-major axis
6,853.031 km
Eccentricity
0.00074
Inclination
52.9954°
RAAN
101.4259°
Arg. of periapsis
279.3719°
True anomaly
80.72802°
Mean anomaly
80.644°
Eccentric anomaly
80.68601°
Mean motion
3.82577 °/min
Orbital period
94.1 mins
BSTAR
0.00059142
Loading maneuver chart data...
Computing Atmospheric mass density...
Loading historical data...
Loading historical data...
Loading historical data...
Loading historical data...
Loading historical data...
Loading historical data...
Loading historical data...

Documentation

Showing up to 5 results
|